sat.trackr.live / text

‹ back to catalog

GLOBALSTAR M094

NORAD 39074 · 2013-005C

PAYLOAD ACTIVE UNKNOWN

§ Identity

Operator
Country
GLOB
Launch date
2013-02-06
Launch site
TYMSC
Launch vehicle
Mass (kg)
RCS (m²)
4.78

Purposes: comms

External: N2YO · Heavens-Above · Gunter

§ Orbital elements

Epoch: 2026-09-19T22:03:56.307744Z

Period
114.08 min
Inclination
51.9942°
Eccentricity
0.0000325
Mean motion
12.62264786 rev/d
Perigee alt
1,413.4 km
Apogee alt
1,413.9 km
Semi-major
7,791.7 km
B*
1.8147e-5
RAAN
222.3680°
Arg perigee
90.7458°
Mean anomaly
269.3446°
Rev number
63,043

§ Raw data

GLOBALSTAR M0941 39074U 13005C   26262.91940171 -.00000101  00000+0  18147-4 0  99992 39074  51.9942 222.3680 0000325  90.7458 269.3446 12.62264786630435

JSON: /api/v1/satellites/39074 · /tle

For live sub-satellite position, see the globe view (requires WebGL).

§ Visibility from observer

Set your observer location to see the next 7 days of passes ≥ 10°. The values pass through the URL so the page stays shareable.

No JS? Fill the form by hand. The geolocation button needs JavaScript.